GW1700 Weather Reports


Display with metric or nautical units.
time (UTC)temp
F
wind
direction
speed
MPH
gust
MPH
rain 1hr
in
rain 24hr
in
rain mn
in
humidity
%
barometer
mb
20260503202523 80 32 1.0 10.0 0.00 0.00 0.00 45 1015.0
20260503202016 80 207 2.0 10.0 0.00 0.00 0.00 44 1015.1
20260503201534 80 280 3.0 10.0 0.00 0.00 0.00 44 1015.1
20260503201017 80 217 2.0 8.0 0.00 0.00 0.00 45 1015.1
20260503200517 80 297 2.0 9.0 0.00 0.00 0.00 46 1015.2
20260503200034 79 213 2.0 9.0 0.00 0.00 0.00 46 1015.3
20260503195517 78 211 2.0 7.0 0.00 0.00 0.00 46 1015.4
20260503195014 78 85 2.0 4.0 0.00 0.00 0.00 47 1015.5
20260503194533 78 272 2.0 9.0 0.00 0.00 0.00 48 1015.5
20260503194017 77 275 1.0 9.0 0.00 0.00 0.00 49 1015.5
20260503193523 77 263 2.0 9.0 0.00 0.00 0.00 48 1015.6
20260503193042 76 0 1.0 10.0 0.00 0.00 0.00 49 1015.7
20260503192518 76 145 3.0 10.0 0.00 0.00 0.00 50 1015.8
20260503192022 76 81 2.0 8.0 0.00 0.00 0.00 51 1015.8
20260503191537 76 252 3.0 8.0 0.00 0.00 0.00 50 1015.9
20260503191019 76 11 0.0 7.0 0.00 0.00 0.00 52 1016.0
20260503190520 76 281 3.0 7.0 0.00 0.00 0.00 52 1015.9
20260503190037 75 211 3.0 8.0 0.00 0.00 0.00 53 1015.9
20260503185519 75 223 2.0 8.0 0.00 0.00 0.00 52 1016.0
20260503185020 75 222 2.0 7.0 0.00 0.00 0.00 53 1016.0
20260503184539 75 251 2.0 7.0 0.00 0.00 0.00 54 1016.1
20260503184019 75 240 3.0 5.0 0.00 0.00 0.00 53 1016.1
20260503183522 75 234 2.0 6.0 0.00 0.00 0.00 53 1016.2
20260503183041 75 0 2.0 7.0 0.00 0.00 0.00 54 1016.2
20260503182518 74 247 2.0 7.0 0.00 0.00 0.00 55 1016.2
20260503182020 73 306 2.0 7.0 0.00 0.00 0.00 56 1016.3
20260503181612 73 268 2.0 8.0 0.00 0.00 0.00 54 1016.3
20260503181021 73 212 4.0 8.0 0.00 0.00 0.00 54 1016.4
20260503180523 73 248 5.0 8.0 0.00 0.00 0.00 55 1016.3
20260503180040 73 234 1.0 6.0 0.00 0.00 0.00 55 1016.4
20260503175519 73 314 2.0 5.0 0.00 0.00 0.00 56 1016.3
20260503175020 72 219 1.0 7.0 0.00 0.00 0.00 55 1016.4
20260503174537 72 192 3.0 7.0 0.00 0.00 0.00 57 1016.4
20260503174020 72 288 1.0 5.0 0.00 0.00 0.00 58 1016.3
20260503173519 71 192 0.0 9.0 0.00 0.00 0.00 59 1016.4
20260503173051 71 329 2.0 9.0 0.00 0.00 0.00 61 1016.4
20260503172519 71 265 4.0 7.0 0.00 0.00 0.00 58 1016.5
20260503172022 71 267 2.0 7.0 0.00 0.00 0.00 59 1016.5
20260503171536 71 265 3.0 7.0 0.00 0.00 0.00 58 1016.5
20260503171019 70 259 2.0 7.0 0.00 0.00 0.00 58 1016.5
20260503170521 70 0 1.0 6.0 0.00 0.00 0.00 59 1016.5
20260503150520 65 0 0.0 1.0 0.00 0.00 0.00 70 1016.9
20260503131016 53 0 0.0 1.0 0.00 0.00 0.00 88 1016.8
20260503130518 53 0 0.0 1.0 0.00 0.00 0.00 88 1016.7
20260503110519 54 0 0.0 0.0 0.00 0.00 0.00 88 1017.0
20260503081536 58 0 0.0 0.0 0.00 0.00 0.00 76 1017.4
20260503081018 58 0 0.0 0.0 0.00 0.00 0.00 75 1017.4
20260503080518 58 0 0.0 0.0 0.00 0.00 0.00 74 1017.4
20260503072517 60 0 0.0 1.0 0.00 0.00 0.00 68 1017.3
20260503072016 61 39 0.0 1.0 0.00 0.00 0.00 65 1017.3
20260503071535 61 0 0.0 1.0 0.00 0.00 0.00 63 1017.4
20260503071016 62 0 0.0 1.0 0.00 0.00 0.00 62 1017.4
20260503070517 62 0 0.0 2.0 0.00 0.00 0.00 61 1017.4
20260503055016 63 0 0.0 2.0 0.00 0.00 0.00 59 1017.2
20260503054532 64 0 0.0 2.0 0.00 0.00 0.00 59 1017.1
20260503054019 64 57 0.0 2.0 0.00 0.00 0.00 59 1017.0
20260503053518 64 0 0.0 2.0 0.00 0.00 0.00 59 1017.0
20260503053040 64 0 0.0 2.0 0.00 0.00 0.00 59 1017.1
20260503052526 64 0 0.0 2.0 0.00 0.00 0.00 59 1017.0
20260503052017 64 0 0.0 2.0 0.00 0.00 0.00 58 1017.0
20260503051536 65 0 0.0 2.0 0.00 0.00 0.00 59 1017.0
20260503051018 65 0 0.0 3.0 0.00 0.00 0.00 58 1017.0
20260503050517 65 0 0.0 3.0 0.00 0.00 0.00 59 1017.0
20260503050036 65 74 1.0 3.0 0.00 0.00 0.00 61 1017.0
20260503045517 65 0 0.0 3.0 0.00 0.00 0.00 61 1016.9
20260503045017 65 0 0.0 2.0 0.00 0.00 0.00 61 1016.9
20260503044603 65 0 0.0 1.0 0.00 0.00 0.00 60 1016.8
20260503044018 66 0 0.0 1.0 0.00 0.00 0.00 59 1016.7
20260503043517 66 0 0.0 3.0 0.00 0.00 0.00 58 1016.7
20260503043030 66 0 0.0 3.0 0.00 0.00 0.00 58 1016.7
20260503042517 67 82 1.0 3.0 0.00 0.00 0.00 58 1016.7
20260503042019 67 0 0.0 4.0 0.00 0.00 0.00 58 1016.7
20260503041536 67 0 0.0 4.0 0.00 0.00 0.00 57 1016.7
20260503041020 67 0 1.0 4.0 0.00 0.00 0.00 60 1016.5
20260503040517 67 0 1.0 6.0 0.00 0.00 0.00 60 1016.4
20260503040031 67 9 0.0 6.0 0.00 0.00 0.00 62 1016.5
20260503035517 67 0 0.0 5.0 0.00 0.00 0.00 61 1016.3
20260503035018 67 66 1.0 4.0 0.00 0.00 0.00 64 1016.3
20260503034535 67 0 0.0 6.0 0.00 0.00 0.00 63 1016.3
20260503034017 68 0 0.0 6.0 0.00 0.00 0.00 64 1016.2
20260503033518 67 57 0.0 6.0 0.00 0.00 0.00 62 1016.1
20260503033037 68 292 0.0 2.0 0.00 0.00 0.00 63 1016.2
20260503032517 68 292 0.0 2.0 0.00 0.00 0.00 62 1016.1
20260503032017 69 0 0.0 2.0 0.00 0.00 0.00 61 1016.0
20260503031530 70 0 0.0 2.0 0.00 0.00 0.00 60 1016.0
20260503031018 70 0 0.0 2.0 0.00 0.00 0.00 59 1015.9
20260503030518 71 0 0.0 1.0 0.00 0.00 0.00 58 1015.8
20260503030035 71 0 0.0 4.0 0.00 0.00 0.00 57 1015.7
20260503025517 71 0 0.0 4.0 0.00 0.00 0.00 56 1015.7
20260503025017 72 0 0.0 3.0 0.00 0.00 0.00 56 1015.7
20260503024532 72 0 0.0 4.0 0.00 0.00 0.00 55 1015.7
20260503024017 72 0 1.0 4.0 0.00 0.00 0.00 54 1015.6
20260503023521 72 0 0.0 4.0 0.00 0.00 0.00 54 1015.6
20260503023040 72 299 0.0 4.0 0.00 0.00 0.00 54 1015.6
20260503022517 73 238 0.0 7.0 0.00 0.00 0.00 54 1015.5
20260503022022 73 287 1.0 7.0 0.00 0.00 0.00 54 1015.5
20260503021532 73 0 1.0 4.0 0.00 0.00 0.00 53 1015.5
20260503021025 74 267 0.0 9.0 0.00 0.00 0.00 52 1015.4
20260503020522 75 49 1.0 9.0 0.00 0.00 0.00 52 1015.5
20260503020036 75 0 1.0 9.0 0.00 0.00 0.00 50 1015.5
20260503015517 75 217 0.0 7.0 0.00 0.00 0.00 50 1015.6
20260503015020 76 43 1.0 7.0 0.00 0.00 0.00 48 1015.5
20260503014543 76 0 0.0 6.0 0.00 0.00 0.00 49 1015.5
20260503014017 76 0 1.0 6.0 0.00 0.00 0.00 49 1015.6
20260503013518 76 307 2.0 6.0 0.00 0.00 0.00 49 1015.5
20260503013032 76 0 0.0 5.0 0.00 0.00 0.00 48 1015.6
20260503012520 76 21 1.0 5.0 0.00 0.00 0.00 47 1015.6
20260503012018 76 257 1.0 4.0 0.00 0.00 0.00 47 1015.6
20260503011534 76 246 1.0 5.0 0.00 0.00 0.00 48 1015.6
20260503011017 77 333 1.0 5.0 0.00 0.00 0.00 47 1015.7
20260503010517 77 318 1.0 4.0 0.00 0.00 0.00 47 1015.6
20260503010034 77 0 0.0 4.0 0.00 0.00 0.00 47 1015.6
20260503005518 77 324 0.0 5.0 0.00 0.00 0.00 48 1015.7
20260503005019 77 276 1.0 5.0 0.00 0.00 0.00 50 1015.6
20260503004530 77 256 2.0 10.0 0.00 0.00 0.00 49 1015.7
20260503004017 76 69 3.0 10.0 0.00 0.00 0.00 50 1015.6
20260503003517 76 334 2.0 9.0 0.00 0.00 0.00 49 1015.7
20260503003035 77 5 2.0 8.0 0.00 0.00 0.00 49 1015.6
20260503002517 77 42 1.0 7.0 0.00 0.00 0.00 48 1015.6
20260503002017 77 288 1.0 7.0 0.00 0.00 0.00 49 1015.6
20260503001544 77 311 1.0 7.0 0.00 0.00 0.00 49 1015.6
20260503001017 77 243 1.0 8.0 0.00 0.00 0.00 49 1015.6
20260503000518 77 293 2.0 8.0 0.00 0.00 0.00 50 1015.7
20260503000045 77 304 2.0 8.0 0.00 0.00 0.00 50 1015.7
20260502235517 76 234 2.0 8.0 0.00 0.00 0.00 50 1015.7
20260502235018 76 313 2.0 7.0 0.00 0.00 0.00 50 1015.8
20260502234548 76 317 1.0 7.0 0.00 0.00 0.00 50 1015.8
20260502234017 77 258 2.0 8.0 0.00 0.00 0.00 49 1015.9
20260502233517 77 227 0.0 9.0 0.00 0.00 0.00 51 1015.9
20260502233030 76 244 3.0 9.0 0.00 0.00 0.00 50 1016.0
20260502232517 76 311 2.0 11.0 0.00 0.00 0.00 52 1016.1
20260502232019 76 85 2.0 11.0 0.00 0.00 0.00 52 1016.2
20260502231532 76 84 2.0 10.0 0.00 0.00 0.00 52 1016.3
20260502231020 76 166 3.0 10.0 0.00 0.00 0.00 53 1016.2
20260502230518 76 275 3.0 8.0 0.00 0.00 0.00 51 1016.3
20260502230035 76 231 2.0 8.0 0.00 0.00 0.00 52 1016.4
20260502225518 76 286 2.0 7.0 0.00 0.00 0.00 52 1016.5
20260502225017 76 208 2.0 11.0 0.00 0.00 0.00 51 1016.6
20260502224535 77 157 2.0 11.0 0.00 0.00 0.00 52 1016.7
20260502224019 76 0 5.0 11.0 0.00 0.00 0.00 52 1016.7
20260502223517 76 282 2.0 10.0 0.00 0.00 0.00 51 1016.7
20260502223038 76 0 0.0 10.0 0.00 0.00 0.00 52 1016.8
20260502222517 76 244 2.0 10.0 0.00 0.00 0.00 51 1016.8
20260502222017 76 327 2.0 7.0 0.00 0.00 0.00 51 1016.8
20260502221536 77 0 2.0 8.0 0.00 0.00 0.00 52 1016.9
20260502221018 77 325 2.0 8.0 0.00 0.00 0.00 50 1016.8
20260502220518 76 225 1.0 9.0 0.00 0.00 0.00 53 1016.8
20260502220039 76 330 5.0 9.0 0.00 0.00 0.00 52 1016.9
20260502215517 76 282 2.0 7.0 0.00 0.00 0.00 54 1017.0
20260502215018 75 305 2.0 9.0 0.00 0.00 0.00 54 1017.1
20260502214545 75 286 1.0 9.0 0.00 0.00 0.00 53 1017.1
20260502214019 75 260 2.0 9.0 0.00 0.00 0.00 53 1017.1
20260502213517 75 225 1.0 11.0 0.00 0.00 0.00 55 1017.1
20260502213039 74 261 2.0 11.0 0.00 0.00 0.00 54 1017.3
20260502212517 74 225 5.0 11.0 0.00 0.00 0.00 53 1017.3
20260502212017 74 208 3.0 11.0 0.00 0.00 0.00 54 1017.3
20260502211535 74 265 3.0 11.0 0.00 0.00 0.00 54 1017.3
20260502211016 74 327 3.0 9.0 0.00 0.00 0.00 55 1017.4
20260502210520 73 0 2.0 9.0 0.00 0.00 0.00 54 1017.4
20260502210032 73 223 3.0 9.0 0.00 0.00 0.00 55 1017.5
20260502205522 73 221 3.0 8.0 0.00 0.00 0.00 56 1017.5
20260502205018 72 100 3.0 10.0 0.00 0.00 0.00 57 1017.5
20260502204540 72 331 4.0 10.0 0.00 0.00 0.00 59 1017.6
20260502204021 72 250 5.0 10.0 0.00 0.00 0.00 56 1017.6
20260502203518 73 260 2.0 7.0 0.00 0.00 0.00 56 1017.7
20260502203100 72 0 2.0 8.0 0.00 0.00 0.00 57 1017.7